FENGYUN 1C DEB, 37424

Orbit data source: Space-Track

FENGYUN 1C DEB, 37424 is space debris in SSO originally from a launch on Mon, 10 May 1999 UTC launched from the Taiyaun Space Center, China (TSC). Fengyun 1C debris stems from the Chinese weather satellite Fengyun-1C, which was intentionally destroyed by a Chinese anti-satellite missile in 2007. This event dramatically increased the amount of space debris, with thousands of trackable fragments posing hazards to satellites and human spaceflight. The Fengyun 1C debris cloud has become a focal point in discussions about space sustainability and the need for international regulations to prevent the creation of new debris.

Loading next visibility...
Identifier
37424, 1999-025EGS
Orbit
SSO
Country
Flag of CNCN / PRC
Related business
Manufacturer
Unknown
Mission
Spacecraft
Bus & Motor
Unknown
Mass
Unknown
Launch date (UTC)
1999-05-10 (27 years ago)
Launch vehicle
Unknown
Launch site
Taiyaun Space Center, China (TSC)
Object type
Payload
Rocket body
Debris
Shape & HBR
Unknown shape, 0.1 m
Radar Cross Section
Small (<0.1 m²)

Expand to show TLE details & history
Last TLE update: 1 week ago

TLE from 1 week ago
0 FENGYUN 1C DEB
1 37424U 99025EGS 26096.57359470  .00002092  00000-0  82305-3 0  9992
2 37424  97.2040 208.6051 0211784 299.0251  58.9855 14.18548947702018
Epoch: 2026-04-06T13:45Z
TLE epoch observation values (Epoch: 2026-04-06T13:45:58.582Z)
Latitude
-0°
Longitude
167.24829°
Altitude
756.962 km
Speed
7.515 km/s
True Right ascension
13h 54m 25s
True Declination
0° 00' 00"
Sunlit
Object was in full shadow at epoch
Visualization orbit readout
Latitude
Unknown
Longitude
Unknown
Altitude
Unknown
Speed
Unknown
Apparent Right ascension
Unknown
Apparent Declination
Unknown
Sunlit
N/A
Visualization observer readout
Local Sidereal Time
10:24:29
Azimuth
Unknown
Elevation
Unknown
Doppler factor
Unknown
Orbital elements
Apogee altitude
979.958 km
Perigee altitude
674.756 km
Semi-major axis
7,205.494 km
Eccentricity
0.02118
Inclination
97.204°
RAAN
208.6051°
Arg. of periapsis
299.0251°
True anomaly
61.09368°
Mean anomaly
58.9855°
Eccentric anomaly
60.03675°
Mean motion
3.54852 °/min
Orbital period
101.45 mins
BSTAR
0.00082305
Loading maneuver chart data...
Computing Atmospheric mass density...

Documentation

Showing up to 5 results
|